Weather History for KLHZ - July, 2013

Change the Weather History Date:

Saturday, July 27, 2013

  Actual Average (KRDU) Record (KRDU)
Temperature  
Mean Temperature 73 °F 80 °F  
Max Temperature 84 °F 90 °F 104 °F (1940)
Min Temperature 62 °F 70 °F 55 °F (1962)
Degree Days  
Heating Degree Days 0 0  
Month to date heating degree days 0  
Since 1 June heating degree days 4  
Since 1 July heating degree days 0  
Cooling Degree Days 8 15  
Month to date cooling degree days 405  
Year to date cooling degree days 961  
Since 1 June cooling degree days 752  
Growing Degree Days 23 (Base 50)    
Moisture  
Dew Point 66 °F    
Average Humidity 84    
Maximum Humidity 100    
Minimum Humidity 54    
Precipitation  
Precipitation 0.04 in 0.15 in 2.45 in (2001)
Month to date precipitation 4.09  
Year to date precipitation 24.64  
Sea Level Pressure  
Sea Level Pressure 30.03 in    
Wind  
Wind Speed 1 mph (SSE)    
Max Wind Speed 7 mph    
Max Gust Speed -    
Visibility 8 miles    
Events Rain    
T = Trace of Precipitation, MM = Missing Value Source: NWS Daily Summary

Daily Weather History Graph

Daily Weather History Graph

Search for Another Location

Airport or City:

Trip Planner

Search our weather history database for the weather conditions in past years. The results will help you decide how hot, cold, wet, or windy it might be!

Date:

Astronomy

Jul. 27, 2013 Rise Set
Actual Time 6:16 AM EDT 8:22 PM EDT
Civil Twilight 5:48 AM EDT 8:50 PM EDT
Nautical Twilight 5:13 AM EDT 9:25 PM EDT
Astronomical Twilight 4:35 AM EDT 10:03 PM EDT
Moon 11:22 PM EDT (7/27) 11:42 AM EDT (7/27)
Length of Visible Light 15h 02m
Length of Day
14h 05m
Waning Gibbous, 71% of the Moon is Illuminated
Jul 27
Waning Gibbous
Jul 29
Last Quarter
Aug 6
New
Aug 14
First Quarter
Aug 20
Full

Hourly Weather History & Observations

Time (EDT) Temp. Heat Index Dew Point Humidity Pressure Visibility Wind Dir Wind Speed Gust Speed Precip Events Conditions
12:15 AM 64.4 °F - 64.4 °F 100% 30.09 in 10.0 mi Calm Calm - N/A   Clear
12:35 AM 64.4 °F - 64.4 °F 100% 30.08 in 10.0 mi Calm Calm - N/A   Clear
12:55 AM 68.0 °F - 64.4 °F 88% 30.08 in 10.0 mi Calm Calm - N/A   Clear
1:15 AM 68.0 °F - 64.4 °F 88% 30.08 in 10.0 mi Calm Calm - N/A   Clear
1:35 AM 66.2 °F - 64.4 °F 94% 30.08 in 10.0 mi Calm Calm - N/A   Clear
1:55 AM 66.2 °F - 64.4 °F 94% 30.07 in 10.0 mi Calm Calm - N/A   Clear
2:15 AM 64.4 °F - 62.6 °F 94% 30.07 in 7.0 mi Calm Calm - N/A   Clear
2:35 AM 64.4 °F - 62.6 °F 94% 30.07 in 7.0 mi Calm Calm - N/A   Clear
2:55 AM 64.4 °F - 62.6 °F 94% 30.06 in 7.0 mi Calm Calm - N/A   Clear
3:15 AM 64.4 °F - 62.6 °F 94% 30.06 in 7.0 mi Calm Calm - N/A   Clear
3:35 AM 62.6 °F - 62.6 °F 100% 30.05 in 7.0 mi Calm Calm - N/A   Clear
3:55 AM 64.4 °F - 62.6 °F 94% 30.05 in 7.0 mi Calm Calm - N/A   Clear
4:15 AM 64.4 °F - 62.6 °F 94% 30.05 in 7.0 mi Calm Calm - N/A   Clear
4:35 AM 62.6 °F - 62.6 °F 100% 30.05 in 5.0 mi Calm Calm - N/A   Clear
4:55 AM 64.4 °F - 62.6 °F 94% 30.05 in 5.0 mi Calm Calm - N/A   Scattered Clouds
5:15 AM 62.6 °F - 62.6 °F 100% 30.05 in 5.0 mi Calm Calm - N/A   Scattered Clouds
5:35 AM 62.6 °F - 62.6 °F 100% 30.05 in 5.0 mi Calm Calm - N/A   Clear
5:55 AM 64.4 °F - 62.6 °F 94% 30.05 in 5.0 mi Calm Calm - N/A   Scattered Clouds
6:15 AM 62.6 °F - 62.6 °F 100% 30.05 in 5.0 mi Calm Calm - N/A   Scattered Clouds
6:35 AM 62.6 °F - 62.6 °F 100% 30.06 in 4.0 mi Calm Calm - N/A   Clear
6:55 AM 64.4 °F - 64.4 °F 100% 30.06 in 3.0 mi Calm Calm - N/A   Scattered Clouds
7:15 AM 66.2 °F - 66.2 °F 100% 30.07 in 3.0 mi Calm Calm - N/A   Mist
7:35 AM 68.0 °F - 66.2 °F 94% 30.07 in 3.0 mi Calm Calm - N/A   Mostly Cloudy
7:55 AM 68.0 °F - 68.0 °F 100% 30.07 in 3.0 mi Calm Calm - N/A   Mist
8:15 AM 68.0 °F - 68.0 °F 100% 30.08 in 4.0 mi Calm Calm - N/A   Scattered Clouds
8:35 AM 69.8 °F - 68.0 °F 94% 30.07 in 5.0 mi South 3.5 mph - N/A   Clear
8:55 AM 71.6 °F - 68.0 °F 88% 30.08 in 7.0 mi Calm Calm - N/A   Clear
9:15 AM 71.6 °F - 69.8 °F 94% 30.08 in 7.0 mi Calm Calm - N/A   Clear
9:35 AM 73.4 °F - 69.8 °F 88% 30.07 in 10.0 mi South 4.6 mph - N/A   Clear
9:55 AM 75.2 °F - 69.8 °F 83% 30.07 in 10.0 mi South 4.6 mph - N/A   Scattered Clouds
10:15 AM 75.2 °F - 68.0 °F 78% 30.06 in 10.0 mi SSW 3.5 mph - N/A   Scattered Clouds
10:35 AM 77.0 °F - 68.0 °F 74% 30.06 in 10.0 mi SSE 3.5 mph - N/A   Clear
10:55 AM 77.0 °F - 68.0 °F 74% 30.06 in 10.0 mi South 3.5 mph - N/A   Clear
11:15 AM 78.8 °F - 68.0 °F 69% 30.06 in 10.0 mi SSE 4.6 mph - N/A   Clear
11:35 AM 78.8 °F - 68.0 °F 69% 30.06 in 10.0 mi SE 4.6 mph - N/A   Clear
11:55 AM 78.8 °F - 66.2 °F 65% 30.05 in 10.0 mi Calm Calm - N/A   Clear
12:15 PM 80.6 °F 83.2 °F 68.0 °F 65% 30.05 in 10.0 mi SE 3.5 mph - N/A   Clear
12:35 PM 80.6 °F 83.2 °F 68.0 °F 65% 30.04 in 10.0 mi Calm Calm - N/A   Clear
12:55 PM 80.6 °F 83.2 °F 68.0 °F 65% 30.03 in 10.0 mi SSE 4.6 mph - N/A   Scattered Clouds
1:15 PM 80.6 °F 82.7 °F 66.2 °F 61% 30.03 in 10.0 mi ESE 4.6 mph - N/A   Scattered Clouds
1:35 PM 80.6 °F 82.7 °F 66.2 °F 61% 30.02 in 10.0 mi East 3.5 mph - N/A   Scattered Clouds
1:55 PM 82.4 °F 84.6 °F 66.2 °F 58% 30.01 in 10.0 mi ESE 5.8 mph - N/A   Mostly Cloudy
2:15 PM 82.4 °F 85.4 °F 68.0 °F 62% 30.00 in 10.0 mi SE 4.6 mph - N/A   Mostly Cloudy
2:35 PM 82.4 °F 83.9 °F 64.4 °F 54% 29.99 in 10.0 mi SSE 5.8 mph - N/A   Scattered Clouds
2:55 PM 82.4 °F 83.9 °F 64.4 °F 54% 29.99 in 10.0 mi South 5.8 mph - N/A   Scattered Clouds
3:15 PM 82.4 °F 83.9 °F 64.4 °F 54% 29.99 in 10.0 mi SE 5.8 mph - N/A   Clear
3:35 PM 82.4 °F 83.9 °F 64.4 °F 54% 29.99 in 10.0 mi SE 3.5 mph - N/A   Scattered Clouds
3:55 PM 84.2 °F 86.6 °F 66.2 °F 55% 29.98 in 10.0 mi ESE 3.5 mph - N/A   Scattered Clouds
4:15 PM 82.4 °F 85.4 °F 68.0 °F 62% 29.98 in 10.0 mi SSE 4.6 mph - N/A   Scattered Clouds
4:35 PM 80.6 °F 83.2 °F 68.0 °F 65% 29.97 in 10.0 mi SE 4.6 mph - N/A   Mostly Cloudy
4:55 PM 80.6 °F 83.2 °F 68.0 °F 65% 29.97 in 10.0 mi Calm Calm - N/A   Scattered Clouds
5:15 PM 80.6 °F 83.2 °F 68.0 °F 65% 29.98 in 10.0 mi SSE 3.5 mph - N/A   Scattered Clouds
5:35 PM 80.6 °F 83.2 °F 68.0 °F 65% 29.98 in 10.0 mi Calm Calm - N/A   Overcast
5:55 PM 80.6 °F 83.9 °F 69.8 °F 70% 29.98 in 10.0 mi Calm Calm - N/A   Scattered Clouds
6:15 PM 78.8 °F - 69.8 °F 74% 29.98 in 10.0 mi Calm Calm - N/A   Clear
6:35 PM 78.8 °F - 69.8 °F 74% 29.97 in 10.0 mi Calm Calm - N/A   Scattered Clouds
6:55 PM 77.0 °F - 71.6 °F 83% 29.98 in 10.0 mi NW 3.5 mph - N/A   Mostly Cloudy
7:15 PM 71.6 °F - 68.0 °F 88% 29.99 in 10.0 mi NW 5.8 mph - N/A Rain Light Rain
7:35 PM 69.8 °F - 68.0 °F 94% 29.98 in 10.0 mi Calm Calm - N/A Rain Light Rain
7:55 PM 69.8 °F - 68.0 °F 94% 29.97 in 10.0 mi Calm Calm - N/A Rain Light Rain
8:15 PM 69.8 °F - 68.0 °F 94% 29.97 in 10.0 mi Calm Calm - N/A   Light Drizzle
8:35 PM 69.8 °F - 68.0 °F 94% 29.97 in 10.0 mi South 6.9 mph - N/A   Scattered Clouds
8:55 PM 69.8 °F - 68.0 °F 94% 29.98 in 7.0 mi South 4.6 mph - 0.03 in Rain Light Rain
9:15 PM 69.8 °F - 69.8 °F 100% 29.98 in 10.0 mi South 6.9 mph - 0.01 in Rain Light Rain
9:35 PM 69.8 °F - 68.0 °F 94% 29.98 in 10.0 mi South 5.8 mph - 0.01 in   Clear
9:55 PM 69.8 °F - 68.0 °F 94% 29.99 in 10.0 mi Calm Calm - 0.01 in   Clear
10:15 PM 69.8 °F - 68.0 °F 94% 29.99 in 10.0 mi South 4.6 mph - N/A   Mostly Cloudy
10:35 PM 69.8 °F - 68.0 °F 94% 29.98 in 10.0 mi South 4.6 mph - N/A   Scattered Clouds
10:55 PM 69.8 °F - 68.0 °F 94% 29.97 in 10.0 mi South 4.6 mph - N/A   Clear
11:15 PM 69.8 °F - 68.0 °F 94% 29.97 in 10.0 mi South 4.6 mph - N/A   Clear
11:35 PM 69.8 °F - 68.0 °F 94% 29.97 in 10.0 mi South 3.5 mph - N/A   Clear
11:55 PM 69.8 °F - 68.0 °F 94% 29.97 in 10.0 mi SSE 4.6 mph - N/A   Clear